Location: Eisingen in Unterfranken
(49.7591°N, 9.8347°E)
Time: 02:20:15
(UTC+02:00)

BlueWalker 3 - Visible Passes

Search period start: 15 April 2024 00:00
Search period end: 25 April 2024 00:00
Orbit: 485 x 496 km, 53.2° (Epoch: 13 April)

Date Brightness Start Highest point End Pass type
(mag) Time Alt. Az. Time Alt. Az. Time Alt. Az.
15 Apr 2.3 03:35:02 58° ENE 03:35:02 58° ENE 03:38:16 10° ESE visible
15 Apr 2.6 05:09:31 13° W 05:12:30 32° SW 05:15:56 10° SSE visible
16 Apr 4.0 03:12:28 20° E 03:12:28 20° E 03:13:45 10° ESE visible
16 Apr 2.5 04:46:59 28° WSW 04:48:00 33° SW 04:51:28 10° SSE visible
16 Apr 3.3 21:47:21 10° S 21:49:30 21° SSE 21:49:30 21° SSE visible
17 Apr 3.3 04:25:09 23° S 04:25:09 23° S 04:26:59 10° SSE visible
17 Apr 3.1 21:22:54 10° S 21:25:55 22° SE 21:28:14 13° E visible
17 Apr 2.5 22:59:57 10° WSW 23:02:48 49° WSW 23:02:48 49° WSW visible
18 Apr 3.2 20:58:26 10° S 21:01:23 21° SE 21:04:21 10° E visible
18 Apr 1.8 22:35:25 10° WSW 22:39:14 86° SSE 22:40:43 36° ENE visible
19 Apr 4.2 00:13:58 10° W 00:15:13 19° WNW 00:15:13 19° WNW visible
19 Apr 1.8 22:10:51 10° WSW 22:14:40 84° SSE 22:17:58 14° ENE visible
19 Apr 3.0 23:49:24 10° W 23:52:25 43° NW 23:52:25 43° NW visible
20 Apr 1.8 21:46:17 10° WSW 21:50:06 82° SSE 21:53:57 10° ENE visible
20 Apr 2.7 23:24:49 10° W 23:28:33 50° N 23:29:14 43° NNE visible
21 Apr 4.7 01:03:20 10° WNW 01:03:40 12° WNW 01:03:40 12° WNW visible
21 Apr 1.8 21:21:43 10° WSW 21:25:31 79° SSE 21:29:21 10° ENE visible
21 Apr 2.7 23:00:13 10° W 23:03:57 50° N 23:05:46 26° ENE visible
22 Apr 4.1 00:38:45 10° WNW 00:40:12 22° WNW 00:40:12 22° WNW visible
22 Apr 1.9 20:57:07 10° WSW 21:00:55 77° SSE 21:04:45 10° ENE visible
22 Apr 2.7 22:35:37 10° W 22:39:21 50° N 22:42:09 17° ENE visible
23 Apr 3.3 00:14:09 10° WNW 00:16:35 35° NW 00:16:35 35° NW visible
23 Apr 2.7 22:10:59 10° W 22:14:44 51° N 22:18:25 10° ENE visible
23 Apr 2.6 23:49:32 10° WNW 23:52:50 54° NNW 23:52:50 54° NNW visible
24 Apr 2.7 21:46:21 10° W 21:50:06 51° N 21:53:51 10° ENE visible
24 Apr 2.3 23:24:54 10° WNW 23:28:42 60° NNE 23:29:02 57° NE visible
